Weather History for KIJD - January, 2013

Change the Weather History Date:

Tuesday, January 29, 2013

  Actual Average Record
Temperature  
Mean Temperature 32 °F -  
Max Temperature 36 °F 35 °F 66 °F (2002)
Min Temperature 28 °F 14 °F -21 °F (1961)
Degree Days  
Heating Degree Days 33    
Moisture  
Dew Point 29 °F    
Average Humidity 86    
Maximum Humidity 93    
Minimum Humidity 78    
Precipitation  
Precipitation 0.03 in - - ()
Sea Level Pressure  
Sea Level Pressure 30.12 in    
Wind  
Wind Speed 1 mph (NNE)    
Max Wind Speed 5 mph    
Max Gust Speed -    
Visibility 5 miles    
Events Rain    
Averages and records for this station are not official NWS values.
T = Trace of Precipitation, MM = Missing Value Source: NWS Daily Summary

Daily Weather History Graph

Daily Weather History Graph

Search for Another Location

Airport or City:

Trip Planner

Search our weather history database for the weather conditions in past years. The results will help you decide how hot, cold, wet, or windy it might be!

Date:

Astronomy

Jan. 29, 2013 Rise Set
Actual Time 7:03 AM EST 5:00 PM EST
Civil Twilight 6:33 AM EST 5:30 PM EST
Nautical Twilight 6:00 AM EST 6:03 PM EST
Astronomical Twilight 5:27 AM EST 6:36 PM EST
Moon 7:57 PM EST (1/29) 7:56 AM EST (1/29)
Length of Visible Light 10h 56m
Length of Day
9h 57m
Waning Gibbous, 94% of the Moon is Illuminated
Jan 29
Waning Gibbous
Feb 3
Last Quarter
Feb 10
New
Feb 17
First Quarter
Feb 25
Full

Hourly Weather History & Observations

Time (EST) Temp. Windchill Dew Point Humidity Pressure Visibility Wind Dir Wind Speed Gust Speed Precip Events Conditions
12:13 AM 30.2 °F - 28.4 °F 93% 29.99 in 1.8 mi Calm Calm - N/A   Overcast
12:52 AM 30.0 °F - 28.0 °F 92% 30.00 in 1.8 mi Calm Calm - N/A   Overcast
1:52 AM 30.0 °F 26.5 °F 27.0 °F 88% 30.03 in 1.5 mi North 3.5 mph - N/A   Overcast
2:52 AM 30.0 °F 25.2 °F 27.0 °F 88% 30.03 in 2.0 mi NNE 4.6 mph - N/A   Overcast
3:30 AM 30.2 °F 26.7 °F 26.6 °F 86% 30.03 in 2.5 mi North 3.5 mph - N/A   Overcast
3:52 AM 30.0 °F - 27.0 °F 88% 30.04 in 2.5 mi Calm Calm - N/A   Overcast
4:25 AM 30.2 °F 25.4 °F 26.6 °F 86% 30.04 in 3.0 mi North 4.6 mph - N/A   Overcast
4:52 AM 28.9 °F 25.2 °F 26.1 °F 89% 30.05 in 3.0 mi North 3.5 mph - N/A   Overcast
5:52 AM 30.0 °F 26.5 °F 26.1 °F 85% 30.09 in 5.0 mi NE 3.5 mph - N/A   Overcast
6:32 AM 30.2 °F - 26.6 °F 86% 30.09 in 6.0 mi Calm Calm - N/A   Overcast
6:52 AM 30.0 °F - 26.1 °F 85% 30.10 in 7.0 mi Calm Calm - N/A   Overcast
7:04 AM 30.2 °F - 26.6 °F 86% 30.09 in 5.0 mi Calm Calm - N/A   Overcast
7:31 AM 30.2 °F 25.4 °F 26.6 °F 86% 30.12 in 4.0 mi NNE 4.6 mph - N/A   Overcast
7:52 AM 30.0 °F 25.2 °F 26.1 °F 85% 30.13 in 4.0 mi NNE 4.6 mph - N/A   Overcast
8:07 AM 30.2 °F 26.7 °F 26.6 °F 86% 30.13 in 5.0 mi North 3.5 mph - N/A   Overcast
8:52 AM 30.0 °F 25.2 °F 26.1 °F 85% 30.15 in 6.0 mi NNE 4.6 mph - N/A   Overcast
9:13 AM 30.2 °F 26.7 °F 26.6 °F 86% 30.14 in 7.0 mi NNE 3.5 mph - N/A   Overcast
9:50 AM 30.2 °F - 26.6 °F 86% 30.15 in 7.0 mi Calm Calm - N/A   Overcast
9:52 AM 30.9 °F - 26.1 °F 82% 30.16 in 7.0 mi Calm Calm - N/A   Overcast
10:52 AM 33.1 °F - 27.0 °F 78% 30.18 in 8.0 mi Calm Calm - N/A   Overcast
11:45 AM 33.8 °F - 28.4 °F 81% 30.15 in 9.0 mi Calm Calm - N/A   Overcast
11:52 AM 34.0 °F - 28.0 °F 79% 30.16 in 9.0 mi Calm Calm - N/A   Overcast
12:52 PM 34.0 °F - 28.9 °F 82% 30.15 in 7.0 mi Calm Calm - N/A   Overcast
1:52 PM 35.1 °F - 30.0 °F 82% 30.15 in 6.0 mi Calm Calm - N/A   Haze
2:52 PM 36.0 °F 32.1 °F 30.0 °F 79% 30.15 in 9.0 mi SE 4.6 mph - N/A   Overcast
3:52 PM 36.0 °F 33.3 °F 30.0 °F 79% 30.17 in 9.0 mi SSE 3.5 mph - N/A   Overcast
4:52 PM 35.1 °F - 30.0 °F 82% 30.16 in 7.0 mi Calm Calm - N/A   Overcast
5:52 PM 35.1 °F - 30.9 °F 85% 30.18 in 8.0 mi Calm Calm - N/A   Overcast
6:05 PM 35.6 °F 32.8 °F 30.2 °F 81% 30.17 in 7.0 mi SSW 3.5 mph - N/A   Overcast
6:52 PM 35.1 °F - 32.0 °F 89% 30.17 in 6.0 mi Calm Calm - N/A   Overcast
7:08 PM 35.6 °F - 30.2 °F 81% 30.16 in 7.0 mi Calm Calm - N/A   Overcast
7:31 PM 35.6 °F - 30.2 °F 81% 30.17 in 7.0 mi Calm Calm - N/A   Overcast
7:52 PM 35.1 °F - 30.9 °F 85% 30.17 in 6.0 mi Calm Calm - N/A   Overcast
8:52 PM 35.1 °F 32.2 °F 30.9 °F 85% 30.18 in 6.0 mi ENE 3.5 mph - N/A   Overcast
9:20 PM 35.6 °F - 32.0 °F 87% 30.16 in 2.5 mi Calm Calm - 0.00 in Rain Light Rain
9:43 PM 35.6 °F - 33.8 °F 93% 30.15 in 1.8 mi Calm Calm - 0.00 in   Overcast
9:52 PM 34.0 °F - 32.0 °F 92% 30.16 in 2.0 mi Calm Calm - 0.01 in Rain Light Rain
10:09 PM 33.8 °F - 32.0 °F 93% 30.15 in 1.5 mi Calm Calm - 0.01 in Rain Light Rain
10:38 PM 33.8 °F - 32.0 °F 93% 30.14 in 0.8 mi Calm Calm - 0.02 in Rain Light Rain
10:52 PM 34.0 °F - 32.0 °F 92% 30.15 in 0.8 mi Calm Calm - 0.02 in Rain Light Rain
11:07 PM 33.8 °F - 32.0 °F 93% 30.13 in 1.0 mi Calm Calm - 0.00 in   Overcast
11:25 PM 33.8 °F - 32.0 °F 93% 30.14 in 0.8 mi Calm Calm - 0.00 in   Overcast
11:52 PM 34.0 °F - 32.0 °F 92% 30.14 in 0.8 mi Calm Calm - 0.00 in   Overcast